User: anonymous   Login
Location: Unspecified
(0.0000°N, 0.0000°E)
Time: 15:57:20
(UTC+00:00)
Language:

Atlas Centaur 2 - Orbit

View from above orbital plane
View from above orbital plane
View from above satellite
View from above satellite

Ground track
Ground track

The orbit data is extracted from the following two-line orbital elements,

1   694U 63047A   18143.89837300 +.00000315 +00000-0 +29716-4 0  9992
2   694 030.3554 090.0428 0586979 107.9485 258.5965 14.02323045730950
Epoch (UTC): 23 May 2018 21:33:39
Eccentricity: 0.0586979
inclination: 30.3554°
perigee height: 459 km
apogee height: 1312 km
right ascension of ascending node: 90.0428°
argument of perigee: 107.9485°
revolutions per day: 14.02323045
mean anomaly at epoch: 258.5965°
orbit number at epoch: 73095

The dashed part of the orbit path shows where the satellite is in the earth's shadow,  

DLR